Check out our new BloomSky Weather System.

Active alerts


No alerts


Thunder radar  blitzortung!


Rain radar more information rain snow radar


Visit our other weather sites:

Template documentation
and downloads

And another site



Weather Underground History page Text

Daily Summary for April 26, 2017 Units:  Metric    English   Both
« Previous Day
Next Day »
Daily Weekly Monthly Yearly Custom
  High: Low: Average:
Temperature: 33.3 °C 19 °C 26.3 °C
Dew Point: 24.9 °C 11.3 °C 20.7 °C
Humidity: 87 % 29 % 73 %
Wind Speed: 24.1 km/h 0 km/h 9.7 km/h
Wind Gust: 35.4 km/h - -
Wind:- - SSW
Pressure: 1008 hPa 998.2 hPa -
Precipitation: 0 mm    
Historical Graphs
 
 
Tabular Data for April 26, 2017
Time Temperature Dew Point Pressure Wind Wind Speed Wind Gust Humidity Rainfall Rate (Hourly)
00:00 24.9 °C 22.2 °C 1001.2 hPa SE 11.3 km/h 19.3 km/h 85 % 0 mm
00:05 24.9 °C 22.2 °C 1001.2 hPa South 6.4 km/h 17.7 km/h 85 % 0 mm
00:10 24.9 °C 22.2 °C 1001.2 hPa ESE 8 km/h 19.3 km/h 85 % 0 mm
00:15 24.9 °C 22.2 °C 1001.2 hPa SSE 8 km/h 19.3 km/h 85 % 0 mm
00:20 24.9 °C 22.2 °C 1001.2 hPa SE 9.7 km/h 24.1 km/h 85 % 0 mm
00:25 24.9 °C 22.2 °C 1001.2 hPa South 6.4 km/h 24.1 km/h 85 % 0 mm
00:30 24.9 °C 22.2 °C 1001.2 hPa SSW 8 km/h 24.1 km/h 85 % 0 mm
00:35 24.9 °C 22.2 °C 1001.2 hPa South 6.4 km/h 17.7 km/h 85 % 0 mm
00:40 24.9 °C 22.2 °C 1001.2 hPa SSE 6.4 km/h 16.1 km/h 85 % 0 mm
00:45 24.9 °C 22.2 °C 1001.2 hPa SE 8 km/h 17.7 km/h 85 % 0 mm
00:50 24.9 °C 22.2 °C 1001.2 hPa South 4.8 km/h 19.3 km/h 85 % 0 mm
00:55 24.9 °C 22.2 °C 1000.9 hPa SSE 4.8 km/h 19.3 km/h 85 % 0 mm
01:00 24.9 °C 22.2 °C 1000.9 hPa South 9.7 km/h 19.3 km/h 85 % 0 mm
01:05 24.9 °C 22.2 °C 1000.9 hPa South 8 km/h 20.9 km/h 85 % 0 mm
01:10 24.9 °C 22.2 °C 1000.6 hPa SE 8 km/h 20.9 km/h 85 % 0 mm
01:15 24.9 °C 22.2 °C 1000.6 hPa ESE 8 km/h 20.9 km/h 85 % 0 mm
01:20 24.9 °C 22.2 °C 1000.6 hPa SSE 8 km/h 19.3 km/h 85 % 0 mm
01:25 24.9 °C 22.2 °C 1000.6 hPa SSW 6.4 km/h 19.3 km/h 85 % 0 mm
01:30 24.9 °C 22.2 °C 1000.2 hPa ESE 8 km/h 19.3 km/h 85 % 0 mm
01:35 24.9 °C 22.2 °C 1000.2 hPa SSE 20.9 km/h 20.9 km/h 85 % 0 mm
01:36 24.9 °C 22.2 °C 1000.2 hPa ESE 12.9 km/h 20.9 km/h 85 % 0 mm
01:41 24.9 °C 22.2 °C 1000.2 hPa SE 11.3 km/h 24.1 km/h 85 % 0 mm
01:46 24.9 °C 22.2 °C 1000.2 hPa SE 11.3 km/h 24.1 km/h 85 % 0 mm
01:51 24.8 °C 22.3 °C 999.9 hPa SW 9.7 km/h 24.1 km/h 86 % 0 mm
01:56 24.8 °C 22.3 °C 999.9 hPa ESE 14.5 km/h 22.5 km/h 86 % 0 mm
02:01 24.8 °C 22.3 °C 999.9 hPa SSE 9.7 km/h 22.5 km/h 86 % 0 mm
02:06 24.7 °C 22.2 °C 999.9 hPa SSE 12.9 km/h 22.5 km/h 86 % 0 mm
02:11 24.7 °C 22.2 °C 999.5 hPa SE 14.5 km/h 17.7 km/h 86 % 0 mm
02:16 24.7 °C 22.2 °C 999.5 hPa SE 9.7 km/h 20.9 km/h 86 % 0 mm
02:21 24.7 °C 22.2 °C 999.5 hPa SE 8 km/h 20.9 km/h 86 % 0 mm
02:26 24.7 °C 22.2 °C 999.5 hPa SSE 9.7 km/h 22.5 km/h 86 % 0 mm
02:31 24.7 °C 22.2 °C 999.5 hPa ESE 17.7 km/h 22.5 km/h 86 % 0 mm
02:36 24.7 °C 22.2 °C 999.2 hPa South 8 km/h 22.5 km/h 86 % 0 mm
02:41 24.7 °C 22.2 °C 999.5 hPa SSE 9.7 km/h 22.5 km/h 86 % 0 mm
02:46 24.7 °C 22.2 °C 999.2 hPa SE 16.1 km/h 20.9 km/h 86 % 0 mm
02:51 24.7 °C 22.2 °C 999.5 hPa SSW 14.5 km/h 24.1 km/h 86 % 0 mm
02:56 24.7 °C 22.2 °C 999.5 hPa South 8 km/h 24.1 km/h 86 % 0 mm
03:01 24.7 °C 22.2 °C 999.5 hPa SE 6.4 km/h 24.1 km/h 86 % 0 mm
03:06 24.7 °C 22.4 °C 999.5 hPa SSE 12.9 km/h 19.3 km/h 87 % 0 mm
03:11 24.7 °C 22.4 °C 999.2 hPa SE 9.7 km/h 20.9 km/h 87 % 0 mm
03:16 24.7 °C 22.4 °C 998.9 hPa SSE 9.7 km/h 22.5 km/h 87 % 0 mm
03:21 24.7 °C 22.4 °C 998.9 hPa SSE 14.5 km/h 25.7 km/h 87 % 0 mm
03:26 24.7 °C 22.4 °C 998.9 hPa ESE 24.1 km/h 25.7 km/h 87 % 0 mm
03:31 24.7 °C 22.4 °C 998.9 hPa SSE 16.1 km/h 25.7 km/h 87 % 0 mm
03:36 24.7 °C 22.4 °C 998.9 hPa SSE 9.7 km/h 24.1 km/h 87 % 0 mm
03:41 24.6 °C 22.3 °C 998.9 hPa SSE 6.4 km/h 24.1 km/h 87 % 0 mm
03:46 24.7 °C 22.4 °C 998.5 hPa SE 8 km/h 24.1 km/h 87 % 0 mm
03:51 24.7 °C 22.4 °C 998.5 hPa SSE 8 km/h 24.1 km/h 87 % 0 mm
03:56 24.7 °C 22.4 °C 998.5 hPa SE 17.7 km/h 20.9 km/h 87 % 0 mm
04:01 24.7 °C 22.4 °C 998.5 hPa SE 8 km/h 27.4 km/h 87 % 0 mm
04:06 24.7 °C 22.4 °C 998.9 hPa SE 9.7 km/h 27.4 km/h 87 % 0 mm
04:16 24.7 °C 22.4 °C 998.9 hPa South 19.3 km/h 24.1 km/h 87 % 0 mm
04:21 24.7 °C 22.4 °C 998.9 hPa South 6.4 km/h 24.1 km/h 87 % 0 mm
04:26 24.7 °C 22.4 °C 998.9 hPa SSE 9.7 km/h 24.1 km/h 87 % 0 mm
04:31 24.6 °C 22.3 °C 998.9 hPa South 9.7 km/h 20.9 km/h 87 % 0 mm
04:36 24.7 °C 22.4 °C 998.5 hPa ESE 9.7 km/h 19.3 km/h 87 % 0 mm
04:41 24.7 °C 22.4 °C 998.9 hPa South 8 km/h 19.3 km/h 87 % 0 mm
04:46 24.7 °C 22.4 °C 998.5 hPa SE 11.3 km/h 17.7 km/h 87 % 0 mm
04:51 24.7 °C 22.4 °C 998.5 hPa SSE 14.5 km/h 17.7 km/h 87 % 0 mm
04:56 24.7 °C 22.2 °C 998.5 hPa SSE 14.5 km/h 22.5 km/h 86 % 0 mm
05:01 24.7 °C 22.2 °C 998.5 hPa SE 14.5 km/h 30.6 km/h 86 % 0 mm
05:06 24.7 °C 22.4 °C 998.5 hPa SE 9.7 km/h 30.6 km/h 87 % 0 mm
05:11 24.7 °C 22.2 °C 998.5 hPa ESE 16.1 km/h 30.6 km/h 86 % 0 mm
05:17 24.7 °C 22.2 °C 998.5 hPa SE 8 km/h 22.5 km/h 86 % 0 mm
05:22 24.7 °C 22.2 °C 998.5 hPa SE 8 km/h 24.1 km/h 86 % 0 mm
05:27 24.7 °C 22.2 °C 998.5 hPa SSW 8 km/h 27.4 km/h 86 % 0 mm
05:32 24.7 °C 22.2 °C 998.5 hPa SSE 4.8 km/h 27.4 km/h 86 % 0 mm
05:37 24.7 °C 22.2 °C 998.5 hPa SW 8 km/h 27.4 km/h 86 % 0 mm
05:42 24.7 °C 22 °C 998.5 hPa SSE 12.9 km/h 20.9 km/h 85 % 0 mm
05:47 24.7 °C 22 °C 998.5 hPa South 8 km/h 24.1 km/h 85 % 0 mm
05:52 24.7 °C 22 °C 998.5 hPa East 19.3 km/h 24.1 km/h 85 % 0 mm
05:57 24.7 °C 22 °C 998.5 hPa SSE 9.7 km/h 24.1 km/h 85 % 0 mm
06:02 24.7 °C 22 °C 998.5 hPa SE 9.7 km/h 19.3 km/h 85 % 0 mm
06:07 24.7 °C 22 °C 998.2 hPa SE 8 km/h 25.7 km/h 85 % 0 mm
06:12 24.7 °C 22 °C 998.2 hPa SSE 12.9 km/h 25.7 km/h 85 % 0 mm
06:17 24.7 °C 22 °C 998.2 hPa SE 9.7 km/h 25.7 km/h 85 % 0 mm
06:22 24.7 °C 22.2 °C 998.2 hPa SW 9.7 km/h 25.7 km/h 86 % 0 mm
06:27 24.7 °C 22.2 °C 998.5 hPa South 8 km/h 19.3 km/h 86 % 0 mm
06:32 24.6 °C 22.1 °C 998.5 hPa SSW 6.4 km/h 19.3 km/h 86 % 0 mm
06:37 24.6 °C 22.1 °C 998.5 hPa ENE 11.3 km/h 17.7 km/h 86 % 0 mm
06:42 24.6 °C 22.1 °C 998.5 hPa South 19.3 km/h 19.3 km/h 86 % 0 mm
06:47 24.7 °C 22.2 °C 998.5 hPa South 8 km/h 24.1 km/h 86 % 0 mm
06:52 24.7 °C 22.2 °C 998.5 hPa SSE 19.3 km/h 24.1 km/h 86 % 0 mm
06:57 24.7 °C 22 °C 998.5 hPa SE 11.3 km/h 24.1 km/h 85 % 0 mm
07:02 24.7 °C 22 °C 998.5 hPa South 14.5 km/h 20.9 km/h 85 % 0 mm
07:07 24.7 °C 22 °C 998.5 hPa SE 16.1 km/h 24.1 km/h 85 % 0 mm
07:12 24.7 °C 22.2 °C 998.5 hPa SE 8 km/h 24.1 km/h 86 % 0 mm
07:17 24.7 °C 22.2 °C 998.5 hPa SSE 11.3 km/h 24.1 km/h 86 % 0 mm
07:22 24.7 °C 22.2 °C 998.5 hPa SE 12.9 km/h 24.1 km/h 86 % 0 mm
07:27 24.8 °C 22.3 °C 998.9 hPa SE 14.5 km/h 25.7 km/h 86 % 0 mm
07:32 24.8 °C 22.1 °C 998.9 hPa South 17.7 km/h 25.7 km/h 85 % 0 mm
07:37 24.8 °C 22.1 °C 998.9 hPa SSE 14.5 km/h 25.7 km/h 85 % 0 mm
07:42 24.8 °C 22.1 °C 998.9 hPa SE 22.5 km/h 25.7 km/h 85 % 0 mm
07:47 24.9 °C 22.2 °C 998.9 hPa South 11.3 km/h 25.7 km/h 85 % 0 mm
07:52 24.9 °C 22.2 °C 998.9 hPa SSE 12.9 km/h 22.5 km/h 85 % 0 mm
07:57 24.9 °C 22.2 °C 998.9 hPa South 11.3 km/h 29 km/h 85 % 0 mm
08:02 25 °C 22.3 °C 998.9 hPa South 12.9 km/h 29 km/h 85 % 0 mm
08:12 25.1 °C 22.4 °C 998.5 hPa SSE 9.7 km/h 22.5 km/h 85 % 0 mm
08:17 25.1 °C 22.2 °C 998.5 hPa South 16.1 km/h 22.5 km/h 84 % 0 mm
08:22 25.2 °C 22.3 °C 998.9 hPa SE 9.7 km/h 24.1 km/h 84 % 0 mm
08:27 25.2 °C 22.3 °C 998.9 hPa SE 17.7 km/h 24.1 km/h 84 % 0 mm
08:32 25.2 °C 22.5 °C 998.9 hPa SE 12.9 km/h 29 km/h 85 % 0 mm
08:37 25.2 °C 22.5 °C 998.9 hPa SSE 8 km/h 29 km/h 85 % 0 mm
08:42 25.3 °C 22.4 °C 999.2 hPa SE 9.7 km/h 29 km/h 84 % 0 mm
08:47 25.3 °C 22.6 °C 999.2 hPa SE 12.9 km/h 22.5 km/h 85 % 0 mm
08:49 25.3 °C 22.4 °C 999.2 hPa SE 8 km/h 22.5 km/h 84 % 0 mm
08:54 25.3 °C 22.4 °C 999.2 hPa SE 9.7 km/h 24.1 km/h 84 % 0 mm
08:55 25.3 °C 22.4 °C 999.2 hPa SSE 12.9 km/h 24.1 km/h 84 % 0 mm
09:00 25.3 °C 22.4 °C 999.5 hPa SE 6.4 km/h 24.1 km/h 84 % 0 mm
09:05 25.3 °C 22.6 °C 999.5 hPa ESE 12.9 km/h 22.5 km/h 85 % 0 mm
09:10 25.3 °C 22.6 °C 999.5 hPa SSW 22.5 km/h 22.5 km/h 85 % 0 mm
09:15 25.3 °C 22.6 °C 999.9 hPa SSE 6.4 km/h 22.5 km/h 85 % 0 mm
09:20 25.3 °C 22.4 °C 999.9 hPa SE 16.1 km/h 22.5 km/h 84 % 0 mm
09:25 25.6 °C 22.9 °C 1000.2 hPa SW 6.4 km/h 22.5 km/h 85 % 0 mm
09:30 25.6 °C 22.5 °C 1000.6 hPa SW 6.4 km/h 17.7 km/h 83 % 0 mm
09:35 25.6 °C 22.3 °C 1000.9 hPa SW 4.8 km/h 17.7 km/h 82 % 0 mm
09:40 25.6 °C 22.5 °C 1000.9 hPa West 3.2 km/h 17.7 km/h 83 % 0 mm
09:45 25.5 °C 22.4 °C 1000.9 hPa SSE 1.6 km/h 17.7 km/h 83 % 0 mm
09:50 25.6 °C 22.5 °C 1000.9 hPa South 4.8 km/h 9.7 km/h 83 % 0 mm
09:55 25.6 °C 22.3 °C 1001.2 hPa South 4.8 km/h 11.3 km/h 82 % 0 mm
10:00 25.6 °C 22.3 °C 1001.2 hPa South 4.8 km/h 11.3 km/h 82 % 0 mm
10:05 25.5 °C 22.6 °C 1001.2 hPa SW 3.2 km/h 14.5 km/h 84 % 0 mm
10:10 25.4 °C 22.7 °C 1000.6 hPa South 6.4 km/h 14.5 km/h 85 % 0 mm
10:15 25.4 °C 22.9 °C 1000.6 hPa SSE 4.8 km/h 14.5 km/h 86 % 0 mm
10:20 25.8 °C 23.3 °C 1000.6 hPa South 6.4 km/h 11.3 km/h 86 % 0 mm
10:25 26.3 °C 23.4 °C 1000.6 hPa South 6.4 km/h 11.3 km/h 84 % 0 mm
10:30 26.5 °C 23.2 °C 1000.6 hPa SSE 11.3 km/h 17.7 km/h 82 % 0 mm
10:35 26.8 °C 23.3 °C 1000.6 hPa SSE 6.4 km/h 19.3 km/h 81 % 0 mm
10:40 27.1 °C 23.1 °C 1000.6 hPa SSE 9.7 km/h 19.3 km/h 79 % 0 mm
10:45 27.2 °C 23.2 °C 1000.6 hPa South 12.9 km/h 22.5 km/h 79 % 0 mm
10:50 27.4 °C 23 °C 1000.6 hPa SSW 19.3 km/h 22.5 km/h 77 % 0 mm
10:55 27.7 °C 23.5 °C 1000.6 hPa South 9.7 km/h 22.5 km/h 78 % 0 mm
11:00 27.8 °C 23.4 °C 1000.6 hPa South 6.4 km/h 22.5 km/h 77 % 0 mm
11:05 28 °C 23.4 °C 1000.6 hPa South 9.7 km/h 22.5 km/h 76 % 0 mm
11:10 28.1 °C 23.7 °C 1000.6 hPa SSW 11.3 km/h 19.3 km/h 77 % 0 mm
11:15 28 °C 23.2 °C 1000.6 hPa SSE 12.9 km/h 22.5 km/h 75 % 0 mm
11:20 28 °C 23.4 °C 1000.6 hPa SE 6.4 km/h 22.5 km/h 76 % 0 mm
11:25 28.1 °C 23.2 °C 1000.6 hPa ESE 16.1 km/h 22.5 km/h 75 % 0 mm
11:30 28.2 °C 23.3 °C 1000.6 hPa SSW 11.3 km/h 24.1 km/h 75 % 0 mm
11:35 28.1 °C 23.5 °C 1000.6 hPa South 12.9 km/h 24.1 km/h 76 % 0 mm
11:40 28.2 °C 23.3 °C 1000.6 hPa SSE 4.8 km/h 24.1 km/h 75 % 0 mm
11:45 28.1 °C 23.2 °C 1000.6 hPa SSE 6.4 km/h 22.5 km/h 75 % 0 mm
11:50 27.8 °C 23.2 °C 1000.6 hPa SE 9.7 km/h 17.7 km/h 76 % 0 mm
11:55 27.7 °C 23.1 °C 1000.6 hPa SSW 12.9 km/h 19.3 km/h 76 % 0 mm
12:00 27.6 °C 23.2 °C 1000.6 hPa South 11.3 km/h 19.3 km/h 77 % 0 mm
12:05 27.6 °C 23.2 °C 1000.6 hPa South 4.8 km/h 19.3 km/h 77 % 0 mm
12:10 27.6 °C 23.2 °C 1000.6 hPa SSW 12.9 km/h 17.7 km/h 77 % 0 mm
12:15 27.7 °C 23.3 °C 1000.6 hPa SSW 11.3 km/h 17.7 km/h 77 % 0 mm
12:20 28.1 °C 23.5 °C 1000.6 hPa SSW 6.4 km/h 17.7 km/h 76 % 0 mm
12:25 28.4 °C 23.5 °C 1000.6 hPa South 6.4 km/h 17.7 km/h 75 % 0 mm
12:30 28.7 °C 23.4 °C 1000.2 hPa SSW 8 km/h 20.9 km/h 73 % 0 mm
12:35 28.8 °C 23.7 °C 1000.2 hPa SW 14.5 km/h 24.1 km/h 74 % 0 mm
12:40 29.1 °C 23.5 °C 1000.2 hPa ESE 9.7 km/h 24.1 km/h 72 % 0 mm
12:46 28.9 °C 23.3 °C 1000.2 hPa South 12.9 km/h 29 km/h 72 % 0 mm
12:51 28.7 °C 23.4 °C 999.9 hPa SE 11.3 km/h 29 km/h 73 % 0 mm
12:56 28.7 °C 23.6 °C 1000.2 hPa SE 3.2 km/h 29 km/h 74 % 0 mm
13:01 28.9 °C 23.6 °C 1000.2 hPa SW 8 km/h 25.7 km/h 73 % 0 mm
13:06 28.9 °C 23.6 °C 999.9 hPa SSE 9.7 km/h 22.5 km/h 73 % 0 mm
13:11 28.8 °C 23.5 °C 999.9 hPa ESE 12.9 km/h 19.3 km/h 73 % 0 mm
13:16 28.8 °C 23.7 °C 999.9 hPa SSW 6.4 km/h 19.3 km/h 74 % 0 mm
13:21 28.9 °C 23.6 °C 999.9 hPa South 6.4 km/h 19.3 km/h 73 % 0 mm
13:26 29.2 °C 23.9 °C 999.9 hPa SSW 6.4 km/h 19.3 km/h 73 % 0 mm
13:31 29.1 °C 23.5 °C 999.9 hPa South 1.6 km/h 19.3 km/h 72 % 0 mm
13:36 29.1 °C 24 °C 999.5 hPa South 16.1 km/h 20.9 km/h 74 % 0 mm
13:41 29.4 °C 24 °C 999.5 hPa SW 8 km/h 20.9 km/h 73 % 0 mm
13:46 29.7 °C 23.9 °C 999.5 hPa SSW 11.3 km/h 24.1 km/h 71 % 0 mm
13:51 29.8 °C 24 °C 999.5 hPa SSW 9.7 km/h 24.1 km/h 71 % 0 mm
13:56 30.1 °C 24.3 °C 999.5 hPa SW 6.4 km/h 24.1 km/h 71 % 0 mm
14:01 30 °C 23.9 °C 999.5 hPa SSW 8 km/h 19.3 km/h 70 % 0 mm
14:06 29.9 °C 24.1 °C 999.5 hPa West 11.3 km/h 19.3 km/h 71 % 0 mm
14:11 30 °C 24.2 °C 999.5 hPa ESE 16.1 km/h 22.5 km/h 71 % 0 mm
14:16 29.9 °C 24.1 °C 999.5 hPa SSE 6.4 km/h 24.1 km/h 71 % 0 mm
14:21 30.2 °C 24.1 °C 999.5 hPa SW 8 km/h 24.1 km/h 70 % 0 mm
14:26 30.1 °C 24.3 °C 999.5 hPa SSW 8 km/h 24.1 km/h 71 % 0 mm
14:31 30.1 °C 24.3 °C 999.5 hPa SSW 12.9 km/h 20.9 km/h 71 % 0 mm
14:36 30.1 °C 24.3 °C 999.2 hPa SE 4.8 km/h 22.5 km/h 71 % 0 mm
14:41 30.1 °C 24.7 °C 999.2 hPa ESE 8 km/h 24.1 km/h 73 % 0 mm
14:46 30.4 °C 24.5 °C 999.2 hPa South 11.3 km/h 24.1 km/h 71 % 0 mm
14:51 30.6 °C 24.5 °C 999.2 hPa SSE 6.4 km/h 24.1 km/h 70 % 0 mm
14:56 30.9 °C 24.1 °C 998.9 hPa South 17.7 km/h 19.3 km/h 67 % 0 mm
15:01 31.2 °C 24.6 °C 998.9 hPa ESE 3.2 km/h 19.3 km/h 68 % 0 mm
15:06 31.3 °C 24.9 °C 998.9 hPa SE 4.8 km/h 17.7 km/h 69 % 0 mm
15:11 31.1 °C 24.2 °C 998.9 hPa South 9.7 km/h 19.3 km/h 67 % 0 mm
15:16 31.3 °C 24.4 °C 998.9 hPa SSW 12.9 km/h 19.3 km/h 67 % 0 mm
15:21 31.1 °C 24.5 °C 998.9 hPa SSE 12.9 km/h 19.3 km/h 68 % 0 mm
15:26 31.3 °C 24.2 °C 998.9 hPa Calm   19.3 km/h 66 % 0 mm
15:31 31.7 °C 24.6 °C 998.9 hPa Calm   19.3 km/h 66 % 0 mm
15:36 31.7 °C 23.8 °C 998.9 hPa WSW 4.8 km/h 19.3 km/h 63 % 0 mm
15:41 31.6 °C 24.5 °C 998.9 hPa SSW 14.5 km/h 19.3 km/h 66 % 0 mm
15:46 31.7 °C 24.3 °C 998.5 hPa SSE 6.4 km/h 19.3 km/h 65 % 0 mm
15:51 31.8 °C 23.9 °C 998.5 hPa SSE 3.2 km/h 17.7 km/h 63 % 0 mm
15:56 31.8 °C 23.9 °C 998.9 hPa SSE 3.2 km/h 17.7 km/h 63 % 0 mm
16:01 31.7 °C 24.3 °C 998.5 hPa SSW 9.7 km/h 17.7 km/h 65 % 0 mm
16:06 31.5 °C 23.9 °C 998.5 hPa SSW 9.7 km/h 17.7 km/h 64 % 0 mm
16:11 31.7 °C 24 °C 998.5 hPa West 3.2 km/h 16.1 km/h 64 % 0 mm
16:16 32.1 °C 23.1 °C 998.2 hPa SSW 11.3 km/h 16.1 km/h 59 % 0 mm
16:22 32.2 °C 23.7 °C 998.2 hPa SW 4.8 km/h 16.1 km/h 61 % 0 mm
16:27 32.1 °C 23.1 °C 998.5 hPa SW 3.2 km/h 16.1 km/h 59 % 0 mm
16:32 31.9 °C 23.2 °C 998.2 hPa SSW 1.6 km/h 16.1 km/h 60 % 0 mm
16:37 31.9 °C 23.4 °C 998.2 hPa NW 3.2 km/h 11.3 km/h 61 % 0 mm
16:42 31.9 °C 23.2 °C 998.5 hPa SSW 4.8 km/h 11.3 km/h 60 % 0 mm
16:47 31.7 °C 23.3 °C 998.5 hPa South 4.8 km/h 11.3 km/h 61 % 0 mm
16:52 31.6 °C 23.2 °C 998.5 hPa SSE 4.8 km/h 11.3 km/h 61 % 0 mm
16:57 31.6 °C 23.4 °C 998.5 hPa SSW 3.2 km/h 11.3 km/h 62 % 0 mm
17:02 32.1 °C 23.9 °C 998.5 hPa WSW 4.8 km/h 11.3 km/h 62 % 0 mm
17:07 32.4 °C 23.6 °C 998.5 hPa SSW 3.2 km/h 12.9 km/h 60 % 0 mm
17:12 32.7 °C 23.1 °C 998.5 hPa SW 6.4 km/h 12.9 km/h 57 % 0 mm
17:17 32.9 °C 21.7 °C 998.5 hPa WSW 4.8 km/h 12.9 km/h 52 % 0 mm
17:22 33.3 °C 21.8 °C 998.5 hPa WSW 4.8 km/h 9.7 km/h 51 % 0 mm
17:27 33.3 °C 19 °C 998.5 hPa SSE 4.8 km/h 16.1 km/h 43 % 0 mm
17:32 33.1 °C 18.1 °C 998.9 hPa WNW 8 km/h 17.7 km/h 41 % 0 mm
17:37 32.8 °C 13.4 °C 998.9 hPa WNW 9.7 km/h 25.7 km/h 31 % 0 mm
17:42 32.8 °C 12.9 °C 998.9 hPa NNW 4.8 km/h 25.7 km/h 30 % 0 mm
17:47 32.8 °C 12.4 °C 998.9 hPa NW 16.1 km/h 25.7 km/h 29 % 0 mm
17:52 32.5 °C 16.8 °C 999.2 hPa NW 6.4 km/h 33.8 km/h 39 % 0 mm
17:57 31.4 °C 18.4 °C 999.5 hPa NW 17.7 km/h 35.4 km/h 46 % 0 mm
18:02 30.9 °C 18.3 °C 999.5 hPa NNW 20.9 km/h 35.4 km/h 47 % 0 mm
18:07 30.7 °C 18.4 °C 999.9 hPa NNW 11.3 km/h 35.4 km/h 48 % 0 mm
18:12 30.4 °C 17.8 °C 999.9 hPa West 6.4 km/h 35.4 km/h 47 % 0 mm
18:17 30.3 °C 17.7 °C 999.9 hPa NW 9.7 km/h 27.4 km/h 47 % 0 mm
18:22 30.1 °C 17.5 °C 999.9 hPa NW 11.3 km/h 27.4 km/h 47 % 0 mm
18:27 30 °C 17.5 °C 999.9 hPa WNW 8 km/h 27.4 km/h 47 % 0 mm
18:32 29.6 °C 17.4 °C 1000.2 hPa NW 11.3 km/h 30.6 km/h 48 % 0 mm
18:37 29.4 °C 17.2 °C 1000.2 hPa West 22.5 km/h 30.6 km/h 48 % 0 mm
18:42 29.2 °C 17.1 °C 1000.6 hPa NW 11.3 km/h 30.6 km/h 48 % 0 mm
18:47 29 °C 16.9 °C 1000.6 hPa WNW 9.7 km/h 29 km/h 48 % 0 mm
18:52 28.9 °C 16.8 °C 1000.6 hPa West 9.7 km/h 27.4 km/h 48 % 0 mm
18:57 28.8 °C 16.7 °C 1000.6 hPa NW 11.3 km/h 22.5 km/h 48 % 0 mm
19:02 28.7 °C 16.6 °C 1000.9 hPa NNW 9.7 km/h 24.1 km/h 48 % 0 mm
19:07 28.5 °C 16.4 °C 1000.9 hPa NNW 11.3 km/h 24.1 km/h 48 % 0 mm
19:12 28.2 °C 16.5 °C 1000.9 hPa NNW 6.4 km/h 24.1 km/h 49 % 0 mm
19:17 27.9 °C 16.8 °C 1000.9 hPa WNW 16.1 km/h 22.5 km/h 51 % 0 mm
19:22 27.8 °C 16.7 °C 1001.2 hPa NNW 6.4 km/h 22.5 km/h 51 % 0 mm
19:24 27.7 °C 16.9 °C 1001.2 hPa NW 8 km/h 22.5 km/h 52 % 0 mm
19:29 27.4 °C 17.3 °C 1001.2 hPa NW 11.3 km/h 22.5 km/h 54 % 0 mm
19:34 27.1 °C 17.3 °C 1001.2 hPa WNW 14.5 km/h 20.9 km/h 55 % 0 mm
19:39 26.7 °C 16.9 °C 1001.6 hPa NNW 11.3 km/h 24.1 km/h 55 % 0 mm
19:44 26.5 °C 17.3 °C 1001.6 hPa West 8 km/h 24.1 km/h 57 % 0 mm
19:49 26.2 °C 17.3 °C 1001.9 hPa NNW 11.3 km/h 24.1 km/h 58 % 0 mm
19:54 25.8 °C 17.2 °C 1002.3 hPa WNW 9.7 km/h 24.1 km/h 59 % 0 mm
19:59 25.5 °C 16.9 °C 1002.3 hPa NW 8 km/h 24.1 km/h 59 % 0 mm
20:04 25.2 °C 16.9 °C 1002.6 hPa NW 14.5 km/h 24.1 km/h 60 % 0 mm
20:09 24.9 °C 16.9 °C 1002.9 hPa NW 11.3 km/h 24.1 km/h 61 % 0 mm
20:14 24.7 °C 16.9 °C 1002.9 hPa NW 9.7 km/h 22.5 km/h 62 % 0 mm
20:19 24.3 °C 16.3 °C 1002.9 hPa NW 11.3 km/h 24.1 km/h 61 % 0 mm
20:24 24.2 °C 16.2 °C 1003.6 hPa NW 9.7 km/h 29 km/h 61 % 0 mm
20:29 23.9 °C 16.2 °C 1003.6 hPa WSW 3.2 km/h 29 km/h 62 % 0 mm
20:34 23.8 °C 16.1 °C 1003.9 hPa NW 11.3 km/h 29 km/h 62 % 0 mm
20:39 23.6 °C 15.9 °C 1003.9 hPa WNW 24.1 km/h 29 km/h 62 % 0 mm
20:44 23.4 °C 15.4 °C 1004.3 hPa NNW 12.9 km/h 29 km/h 61 % 0 mm
20:49 23.3 °C 15.6 °C 1004.6 hPa NW 11.3 km/h 29 km/h 62 % 0 mm
20:55 23.2 °C 15.5 °C 1004.6 hPa NW 6.4 km/h 29 km/h 62 % 0 mm
21:00 23.1 °C 15.4 °C 1005 hPa NW 12.9 km/h 29 km/h 62 % 0 mm
21:05 22.8 °C 14.9 °C 1005 hPa North 14.5 km/h 27.4 km/h 61 % 0 mm
21:10 22.7 °C 14.5 °C 1005.3 hPa NW 8 km/h 27.4 km/h 60 % 0 mm
21:15 22.5 °C 14.3 °C 1005.3 hPa West 11.3 km/h 27.4 km/h 60 % 0 mm
21:20 22.4 °C 14.3 °C 1005.3 hPa NW 4.8 km/h 22.5 km/h 60 % 0 mm
21:25 22.3 °C 14.2 °C 1005.6 hPa NNE 8 km/h 22.5 km/h 60 % 0 mm
21:30 22.2 °C 14.1 °C 1005.6 hPa NNW 12.9 km/h 19.3 km/h 60 % 0 mm
21:35 22.1 °C 14 °C 1005.6 hPa NNW 4.8 km/h 19.3 km/h 60 % 0 mm
21:40 22.1 °C 14 °C 1006 hPa NW 4.8 km/h 17.7 km/h 60 % 0 mm
21:45 22 °C 14.1 °C 1006 hPa WNW 6.4 km/h 16.1 km/h 61 % 0 mm
21:50 21.9 °C 14 °C 1006.3 hPa NW 4.8 km/h 14.5 km/h 61 % 0 mm
21:55 21.7 °C 13.8 °C 1006.3 hPa NW 8 km/h 14.5 km/h 61 % 0 mm
22:00 21.6 °C 14 °C 1006.3 hPa NNW 6.4 km/h 14.5 km/h 62 % 0 mm
22:05 21.5 °C 13.7 °C 1006.3 hPa NW 6.4 km/h 12.9 km/h 61 % 0 mm
22:10 21.4 °C 13.6 °C 1006.7 hPa West 11.3 km/h 14.5 km/h 61 % 0 mm
22:15 21.3 °C 13.5 °C 1006.7 hPa NW 3.2 km/h 14.5 km/h 61 % 0 mm
22:20 21.2 °C 13.6 °C 1006.7 hPa NW 8 km/h 17.7 km/h 62 % 0 mm
22:25 21.1 °C 13.3 °C 1006.7 hPa WNW 9.7 km/h 17.7 km/h 61 % 0 mm
22:30 20.9 °C 13.3 °C 1007 hPa NW 6.4 km/h 17.7 km/h 62 % 0 mm
22:35 20.8 °C 13.3 °C 1007 hPa North 8 km/h 16.1 km/h 62 % 0 mm
22:40 20.7 °C 13.2 °C 1007 hPa NW 3.2 km/h 16.1 km/h 62 % 0 mm
22:45 20.6 °C 13.3 °C 1007.3 hPa NW 6.4 km/h 16.1 km/h 63 % 0 mm
22:50 20.4 °C 13.1 °C 1007.3 hPa NNW 4.8 km/h 16.1 km/h 63 % 0 mm
22:55 20.3 °C 12.5 °C 1007.3 hPa NW 12.9 km/h 17.7 km/h 61 % 0 mm
23:00 20.2 °C 11.9 °C 1007.3 hPa North 19.3 km/h 25.7 km/h 59 % 0 mm
23:05 20.1 °C 11.8 °C 1007.3 hPa NW 14.5 km/h 25.7 km/h 59 % 0 mm
23:10 20.1 °C 11.8 °C 1007.3 hPa NW 9.7 km/h 25.7 km/h 59 % 0 mm
23:15 19.9 °C 11.6 °C 1007.3 hPa NW 6.4 km/h 20.9 km/h 59 % 0 mm
23:20 19.8 °C 11.8 °C 1007.3 hPa NNW 8 km/h 20.9 km/h 60 % 0 mm
23:25 19.7 °C 11.5 °C 1007.7 hPa NW 6.4 km/h 22.5 km/h 59 % 0 mm
23:30 19.6 °C 11.4 °C 1007.7 hPa NE 12.9 km/h 22.5 km/h 59 % 0 mm
23:35 19.5 °C 11.5 °C 1007.7 hPa NW 14.5 km/h 22.5 km/h 60 % 0 mm
23:40 19.4 °C 11.4 °C 1007.7 hPa NW 11.3 km/h 20.9 km/h 60 % 0 mm
23:45 19.3 °C 11.3 °C 1007.7 hPa NNW 16.1 km/h 19.3 km/h 60 % 0 mm
23:50 19.2 °C 11.5 °C 1008 hPa NW 6.4 km/h 20.9 km/h 61 % 0 mm
23:55 19 °C 11.6 °C 1008 hPa NW 6.4 km/h 22.5 km/h 62 % 0 mm
Spring, Texas: Villages of Bridgestone
Compliments of Weather Underground - 2.75 mb

Script developed by  Jim McMurry - jmcmurry@mwt.net Adapted for the template by  Wim van der Kuil - Leuven-Template.eu

You find our weather info also at:

UK Metoffice

WeatherCloud

Weather Underground

Mid-South Weather Network

AWEKAS

Citizen Weather Observer Program (CWOP)

HAMweather, WeatherForYou, PWS Weather

Equipment we use:

Weather-station
Davis Vantage Vue

Weather-program
Meteohub

Weather-server
Debian 7.9 x86 (Guest)

Provider
DreamHost

Davis Vantage Vue

Meteohub

Debian 7.9 x86 (Guest)

DreamHost